Volver al catálogo

STARLINK-3579

ActivoComunicacionesVLEO
NORAD 51893·PAYLOAD·🇺🇸 United States

Lanzado Mar 3, 2022 desde Cape Canaveral Space Force Station

Loading…

Próximos Pases (próximas 24 horas)

TLE

ActualizadoSource: CelesTrak SupGP

Época: Sep 14, 2026, 21:19 UTC

1 51893C 22022AT  26257.88868056  .00031179  00000+0  17994-2 0  2574
2 51893  53.2148 228.5545 0001776  52.5679  53.8435 15.11830318    17

Sigue STARLINK-3579 en tiempo real con AllMySat

Download on the App Store